Weather in Shumen

Bulgaria     43°15′58″N   26°56′04″E
temp.,
°C
wind,
m/s
gust,
m/s
humid.,
%
clouds,
%
prec.,
mm/h
press.,
hPa
HPBL,
m
21 april, wed
wed2100:00+6sw22874 0.0 101513
03:00+5wsw11875 0.0 101610
06:00+4wsw11865 0.0 101610
09:00+10wsw37690 0.0 1017507
12:00+14w67554 0.0 10171411
15:00+16wnw56495 0.0 10172026
18:00+14w3563100 0.2 1017202
21:00+9sw227528 0.4 101911
22 april, thu
thu2200:00+8wsw22803 0.0 101910
03:00+7w11824 0.0 102010
06:00+6sw11820 0.0 102010
09:00+11ssw12660 0.0 1021191
12:00+17sw23451 0.0 10211764
15:00+19ssw243829 0.0 10192491
18:00+16s466273 0.0 1018261
21:00+11s337495 0.0 102031
23 april, fri
fri2300:00+10se228297 0.0 101916
03:00+8ese2285100 0.0 101810
06:00+8s1185100 0.0 101810
09:00+12ssw1272100 0.0 1018191
12:00+16wnw566464 0.1 10181062
15:00+13wnw477876 0.3 1019582
18:00+15w68695 0.0 10181163
21:00+11w513610 0.0 1020454
24 april, sat
sat2400:00+9wnw5135822 0.0 1021442
03:00+6wnw22725 0.0 102216
06:00+4nw117593 0.0 102313
09:00+9wnw47595 0.0 1023700
12:00+13w454998 0.0 10231352
15:00+15w4444100 0.0 10211710
18:00+14wnw335281 0.0 10201548
21:00+9e1174100 0.0 102115
25 april, sun
sun2500:00+6e119099 0.0 102110
03:00+6e1190100 0.0 102010
06:00+6ese1192100 0.0 102010
09:00+9se2277100 0.0 1021355
12:00+13se216065 0.1 10201257
15:00+14se1157100 0.4 10191041
18:00+13sse1167100 0.4 1018254
21:00+9ese2282100 0.6 101943